Cape Neddick Weather Center

Moon Phase Calendar



Online Cameras

 


      

Current Conditions in Cape Neddick
7/16/2024 4:19:22 AM

73°F
Feels Like 75
Clouds
Humidity
95%
Pressure
29.71"
Wind
8.3 mph (SSW)
Dew Point
72°F
UV Index
0/10 (Low)
Visibility
1 mi

Hourly Forecast

Date & Time Tue, Jul 16
4:00 AM
Tue, Jul 16
5:00 AM
Tue, Jul 16
6:00 AM
Tue, Jul 16
7:00 AM
Tue, Jul 16
8:00 AM
Tue, Jul 16
9:00 AM
Tue, Jul 16
10:00 AM
Tue, Jul 16
11:00 AM
Tue, Jul 16
12:00 PM
Tue, Jul 16
1:00 PM
Tue, Jul 16
2:00 PM
Tue, Jul 16
3:00 PM
Tue, Jul 16
4:00 PM
Tue, Jul 16
5:00 PM
Tue, Jul 16
6:00 PM
Tue, Jul 16
7:00 PM
Tue, Jul 16
8:00 PM
Tue, Jul 16
9:00 PM
Tue, Jul 16
10:00 PM
Tue, Jul 16
11:00 PM
Wed, Jul 17
12:00 AM
Wed, Jul 17
1:00 AM
Wed, Jul 17
2:00 AM
Wed, Jul 17
3:00 AM
Wed, Jul 17
4:00 AM
Wed, Jul 17
5:00 AM
Wed, Jul 17
6:00 AM
Wed, Jul 17
7:00 AM
Wed, Jul 17
8:00 AM
Wed, Jul 17
9:00 AM
Wed, Jul 17
10:00 AM
Wed, Jul 17
11:00 AM
Wed, Jul 17
12:00 PM
Wed, Jul 17
1:00 PM
Wed, Jul 17
2:00 PM
Wed, Jul 17
3:00 PM
Wed, Jul 17
4:00 PM
Wed, Jul 17
5:00 PM
Wed, Jul 17
6:00 PM
Wed, Jul 17
7:00 PM
Wed, Jul 17
8:00 PM
Wed, Jul 17
9:00 PM
Wed, Jul 17
10:00 PM
Wed, Jul 17
11:00 PM
Thu, Jul 18
12:00 AM
Thu, Jul 18
1:00 AM
Thu, Jul 18
2:00 AM
Thu, Jul 18
3:00 AM
Condition
Clouds

Clouds

Clouds

Clouds

Clouds

Clouds

Clouds

Clouds

Clouds

Clouds

Clouds

Clear

Clear

Clear

Clouds

Clouds

Clouds

Rain

Rain

Rain

Clouds

Clouds

Clouds

Clouds

Clouds

Clouds

Clouds

Clouds

Clouds

Clear

Clouds

Clouds

Clouds

Clouds

Rain

Clouds

Clouds

Clouds

Clouds

Clouds

Clouds

Clouds

Clouds

Rain

Rain

Clouds

Clouds

Clouds
Temperature 73°F72°F71°F70°F70°F74°F77°F80°F82°F84°F86°F87°F87°F87°F85°F81°F76°F76°F70°F70°F69°F68°F68°F67°F67°F67°F67°F68°F70°F75°F77°F77°F79°F77°F72°F75°F81°F82°F82°F78°F74°F72°F76°F74°F69°F69°F69°F68°F
Feels Like 75°F74°F72°F71°F72°F74°F77°F80°F84°F86°F86°F87°F87°F87°F86°F83°F76°F77°F72°F71°F71°F69°F69°F68°F68°F68°F68°F69°F71°F75°F78°F77°F79°F77°F73°F76°F84°F84°F84°F79°F75°F73°F77°F75°F70°F70°F70°F69°F
Cloudiness 99%98%95%95%97%47%63%45%37%31%27%7%5%8%32%47%41%55%82%89%88%76%64%77%75%56%55%64%70%10%55%69%76%81%84%100%76%83%87%90%91%96%97%96%98%98%99%100%
Visibility 1 mi3 mi4 mi0 mi5 mi6 mi6 mi6 mi6 mi6 mi6 mi6 mi6 mi6 mi6 mi6 mi6 mi6 mi6 mi6 mi6 mi6 mi6 mi6 mi6 mi6 mi6 mi6 mi6 mi6 mi6 mi6 mi6 mi6 mi6 mi6 mi6 mi6 mi6 mi6 mi6 mi6 mi6 mi6 mi6 mi6 mi6 mi6 mi
Precipitation 0%0%0%0%0%0%0%0%0%0%0%0%0%0%0%0%0%96%100%100%80%80%80%0%0%0%0%0%0%0%0%0%0%0%24%2%0%0%0%0%0%11%30%40%69%60%51%12%
Humidity 95%96%97%98%97%76%66%60%54%49%43%40%39%42%46%58%68%73%97%98%97%99%99%99%99%99%99%98%94%77%67%70%63%71%86%78%62%58%60%67%76%80%68%73%92%90%88%91%
Dew Point 72°F71°F70°F70°F69°F66°F64°F64°F63°F63°F61°F59°F58°F60°F62°F65°F64°F67°F70°F69°F69°F68°F68°F67°F67°F66°F66°F67°F68°F66°F65°F66°F64°F66°F68°F67°F66°F65°F66°F66°F66°F66°F65°F65°F67°F66°F65°F66°F
Pressure 29.71"29.71"29.71"29.71"29.74"29.74"29.71"29.71"29.71"29.71"29.68"29.68"29.68"29.65"29.65"29.68"29.68"29.74"29.74"29.71"29.71"29.74"29.74"29.74"29.74"29.74"29.77"29.77"29.77"29.77"29.77"29.77"29.77"29.77"29.77"29.77"29.74"29.74"29.74"29.74"29.74"29.77"29.8"29.8"29.8"29.8"29.77"29.8"
Wind Speed 8.3 mph7.5 mph10.6 mph10.6 mph11 mph13.4 mph12.3 mph11.9 mph12 mph11.7 mph11.5 mph11.4 mph10.6 mph10.1 mph8.6 mph6.3 mph10 mph14.1 mph7.2 mph6.7 mph7.6 mph8.2 mph7.6 mph7.4 mph7.5 mph7.9 mph7.4 mph6.8 mph6.5 mph7.4 mph6.8 mph7.7 mph7.8 mph6.9 mph7.4 mph7.7 mph8.9 mph9.9 mph8.9 mph7.8 mph7.3 mph9.8 mph9.9 mph9.5 mph5.9 mph6.1 mph4.9 mph6.8 mph
Wind
Direction
202°
SSW
207°
SSW
216°
SW
228°
SW
236°
SW
250°
WSW
252°
WSW
254°
WSW
259°
W
254°
WSW
248°
WSW
240°
WSW
237°
WSW
230°
SW
230°
SW
208°
SSW
201°
SSW
246°
WSW
258°
WSW
252°
WSW
249°
WSW
232°
SW
230°
SW
238°
WSW
235°
SW
244°
WSW
234°
SW
228°
SW
231°
SW
246°
WSW
227°
SW
209°
SSW
211°
SSW
197°
SSW
180°
S
214°
SW
215°
SW
208°
SSW
201°
SSW
197°
SSW
197°
SSW
211°
SSW
261°
W
262°
W
234°
SW
270°
W
262°
W
236°
SW

Daily Forecast

Date High Low Precip. Humidity
Today
Jul 16

Rain
87 °F
70 °F
100%
54%
Wednesday
Jul 17

Rain
82 °F
67 °F
80%
63%
Thursday
Jul 18

Rain
78 °F
65 °F
100%
90%
Friday
Jul 19

Clear
72 °F
62 °F
0%
58%
Saturday
Jul 20

Clouds
80 °F
61 °F
0%
40%
Sunday
Jul 21

Clouds
75 °F
63 °F
0%
60%
Monday
Jul 22

Clouds
68 °F
60 °F
0%
63%
Tuesday
Jul 23

Clear
71 °F
58 °F
0%
69%
Wednesday
Jul 24

Clear
79 °F
64 °F
0%
55%
Thursday
Jul 25

Rain
69 °F
64 °F
100%
89%
Friday
Jul 26

Clouds
81 °F
67 °F
14%
63%
Saturday
Jul 27

Clouds
87 °F
68 °F
0%
53%
Sunday
Jul 28

Rain
80 °F
70 °F
34%
67%
Monday
Jul 29

Clear
91 °F
72 °F
0%
61%
Tuesday
Jul 30

Rain
91 °F
69 °F
100%
44%
Wednesday
Jul 31

Rain
95 °F
68 °F
80%
61%

Temperature 8-14 Day Outlook



Precipitation 8-14 Day Outlook






About Us
Contact Us
Site Map
Search Site
Advertise With Us
   
CapeNeddick.USCoast.info
THE CAPE NEDDICK WEBSITE

Copyright 2024, Coastal Town
Privacy    |    Legal